Погода в Светлодарске

Украина / Донецкая область     48°26′06″N   38°13′12″E
темп.,
°C
ветер,
м/с
пор.,
м/с
влажн.,
%
обл.,
%
осадки,
мм/ч
давл.,
гПа
погр.,
м
23 января, сб
сб2323:00+2ююз6139584 0.0 1022290
02:00+2ююз6129792 0.0 1021309
05:00+2ю61397100 0.0 1021332
08:00+2ю71398100 0.0 1021306
11:00+2ю71310097 0.0 1021338
14:00+2ю7139697 0.0 1020325
17:00+2ю7149183 0.0 1020300
20:00+2ю8148790 0.0 1020337
24 января, вс
вс2423:00+2ю81588100 0.0 1020320
02:00+2ю7138598 0.1 1019270
05:00+2ю7128098 0.0 1019242
08:00+2ююв6117599 0.0 1019216
11:00+3ююв61168100 0.0 1019270
14:00+3ююв61168100 0.0 1017264
17:00+2юв61276100 0.0 1017260
20:00+1ююв71482100 0.0 1017329
25 января, пн
пн2523:000ююв71387100 0.0 1016301
02:00+1ююв61185100 0.0 1016256
05:00+1ю71287100 0.1 1015264
08:00+2ю61088100 0.1 1016206
11:00+4ююв7128284 0.1 1015295
14:00+5ююв6117767 0.1 1014274
17:00+2ююв6128182 0.0 1014216
20:00+3ююв7157390 0.0 1014317
26 января, вт
вт2623:00+4юв92061100 0.0 1012426
02:00+2ююв9177498 0.3 1010399
05:00+3ююв9198096 0.5 1009468
08:00+4ю9178798 0.5 1008432
11:00+5ю81592100 1.1 1007641
14:00+5ю111986100 5.6 1006831
17:00+4ююз6148599 1.1 1009859
20:00+2ююз6147889 1.1 1012530
27 января, ср
ср2723:00+1юз6137593 0.0 1014451
02:000ю597497 0.0 1014234
05:000ю4873100 0.0 1014211
08:00+1ю4868100 0.0 1015270
11:00+2ююз4766100 0.0 1015437
14:00+2ю3474100 0.0 1014285
17:00+1ююв1184100 0.0 101422
20:00+1в2281100 0.0 101345